[[{"header":{"parameterUnit":"m.s-1","parameterCategory":1,"la1":30.2992,"la2":30.254,"lo1":-89.0895,"lo2":-89.0443,"dy":0.0025,"dx":0.0025,"nx":19,"ny":19,"refTime":"2026-03-13T09:00:00:Z","depth":0,"parameterNumber":2,"parameterNumberName":"U-component_of_WINDS"},"data":[0,0,0,-1.8325,-1.8329,-1.8489,-1.8489,-1.8708,-1.871,0,0,0,0,0,0,0,0,0,0,0,-1.8286,-1.8288,-1.8325,-1.8329,-1.8489,-1.849,-1.8708,-1.871,0,0,0,0,0,0,0,0,0,0,0,-1.8285,-1.8287,-1.8289,-1.833,-1.8489,-1.849,-1.8707,-1.8582,0,0,0,0,0,0,0,0,0,0,-1.8424,-1.8395,-1.8287,-1.8289,-1.8331,-1.8489,-1.849,-1.8575,-1.8589,-1.8641,0,-1.8689,0,-1.8703,-1.8725,-1.8726,0,0,0,-1.8324,-1.8384,-1.8419,-1.829,-1.8332,-1.8488,-1.8415,-1.8583,-1.8599,-1.866,-1.8692,-1.87,-1.8706,-1.8727,-1.8728,-1.9044,-1.9046,0,0,-1.8315,-1.8319,-1.8408,-1.843,-1.8406,-1.841,-1.842,-1.8592,-1.8628,-1.8693,-1.8705,-1.871,-1.8728,-1.873,-1.9042,-1.9045,0,0,0,-1.8293,-1.8314,-1.8345,-1.8422,-1.8449,-1.8415,-1.8427,-1.862,-1.863,-1.8707,-1.8713,-1.873,-1.8733,-1.9041,-1.9043,-1.9135,0,0,0,-1.8288,-1.8301,-1.8341,-1.8346,-1.8446,-1.8537,-1.8451,-1.8618,-1.8637,-1.8712,-1.873,-1.8735,-1.9039,-1.9042,-1.9128,-1.9179,0,0,0,-1.8273,-1.8299,-1.8325,-1.8345,-1.8414,-1.8534,-1.8553,-1.8622,-1.8641,-1.8726,-1.8735,-1.9037,-1.9041,-1.9122,-1.9169,-1.9265,0,0,0,-1.8259,-1.8404,-1.8326,-1.8491,-1.8413,-1.8588,-1.8552,-1.8683,-1.8766,-1.8731,-1.9039,-1.9043,-1.9121,-1.9163,-1.9258,-1.9348,-1.9384,0,0,-1.8445,-1.8427,-1.8523,-1.8458,-1.8649,-1.8563,-1.8768,-1.884,-1.8844,-1.8977,-1.8985,-1.9131,-1.9168,-1.9263,-1.9585,-1.9615,0,0,0,-1.8584,-1.8654,-1.8703,-1.8783,-1.884,-1.8895,-1.8935,-1.8961,-1.9074,-1.8913,-1.9189,-1.9212,-1.9267,-1.931,-1.9335,-1.9383,-1.9062,-1.9062,-1.9061,-1.8858,-1.8853,-1.9013,-1.9028,-1.9105,-1.9144,-1.9207,-1.9249,-1.9223,-1.9288,-1.9329,-1.9525,-1.9575,-1.9593,-1.9644,-1.9373,-1.9373,-1.9374,-1.9374,-1.9132,-1.9231,-1.9191,-1.9331,-1.9326,-1.9444,-1.9487,-1.9464,-1.9574,-1.9494,-1.9543,-1.9459,-1.9626,-1.967,-1.9381,-1.938,-1.9379,-1.9378,-1.9378,-1.9314,-1.936,-1.9388,-1.9502,-1.959,-1.9599,-1.9706,-1.9696,-1.9689,-1.9736,-1.9779,-1.9778,-1.9777,-1.9757,-1.9757,-1.9758,-1.9759,-1.9759,-1.976,-1.9492,-1.952,-1.9612,-1.9683,-1.9733,-1.9796,-1.9835,-1.9883,-1.9935,-1.992,-1.992,-1.9889,-1.9642,-1.9582,-1.977,-1.9768,-1.9767,-1.9766,-1.9765,-1.9777,-1.9711,-1.9852,-1.9901,-1.9984,-2.0072,-2.0057,-2.0156,-2.0194,-2.0248,-2.0204,-2.0022,-2.0004,-1.9984,-1.9934,-2.0203,-2.0203,-2.0203,-2.0203,-1.9933,-1.992,-2.0062,-2.0142,-2.0218,-2.0218,-2.0378,-2.0409,-2.043,-2.0454,-2.0412,-2.0344,-2.0324,-2.0318,-2.029,-2.0244,-2.0586,-2.0586,-2.0587,-2.0109,-2.0104,-2.0242,-2.0261,-2.0325,-2.038,-2.053,-2.0623,-2.0633,-2.0602,-2.0472,-2.0456,-2.0346,-2.031,-2.028,-2.0238,-2.0153,0,0]},{"header":{"parameterUnit":"m.s-1","parameterCategory":1,"la1":30.2992,"la2":30.254,"lo1":-89.0895,"lo2":-89.0443,"dy":0.0025,"dx":0.0025,"nx":19,"ny":19,"refTime":"2026-03-13T09:00:00:Z","depth":0,"parameterNumber":3,"parameterNumberName":"V-component_of_WINDS"},"data":[0,0,0,-5.3611,-5.3617,-5.3878,-5.3879,-5.4222,-5.4225,0,0,0,0,0,0,0,0,0,0,0,-5.3542,-5.3544,-5.3611,-5.3618,-5.3878,-5.3879,-5.4221,-5.4225,0,0,0,0,0,0,0,0,0,0,0,-5.354,-5.3544,-5.3547,-5.3619,-5.3878,-5.3879,-5.422,-5.402,0,0,0,0,0,0,0,0,0,0,-5.3765,-5.3709,-5.3543,-5.3547,-5.362,-5.3878,-5.3879,-5.401,-5.4032,-5.4108,0,-5.4179,0,-5.4208,-5.4249,-5.425,0,0,0,-5.3611,-5.369,-5.3754,-5.3547,-5.3623,-5.3877,-5.3759,-5.4022,-5.4048,-5.4138,-5.4184,-5.4196,-5.4213,-5.4251,-5.4253,-5.4713,-5.4715,0,0,-5.3597,-5.3592,-5.3736,-5.377,-5.3733,-5.375,-5.3767,-5.4037,-5.4087,-5.4185,-5.4204,-5.4219,-5.4253,-5.4256,-5.4711,-5.4714,0,0,0,-5.356,-5.3583,-5.3639,-5.3757,-5.3803,-5.3758,-5.3777,-5.4075,-5.4094,-5.4208,-5.4223,-5.4255,-5.426,-5.4708,-5.4712,-5.4829,0,0,0,-5.3551,-5.3561,-5.3633,-5.3633,-5.3798,-5.3943,-5.3809,-5.4075,-5.4106,-5.4221,-5.4255,-5.4263,-5.4705,-5.471,-5.482,-5.4885,0,0,0,-5.3522,-5.3557,-5.3598,-5.3632,-5.3744,-5.3939,-5.3973,-5.4082,-5.4116,-5.425,-5.4264,-5.4704,-5.4709,-5.4812,-5.4872,-5.5005,0,0,0,-5.349,-5.3698,-5.36,-5.3838,-5.3742,-5.4009,-5.3971,-5.417,-5.4299,-5.4257,-5.4706,-5.4711,-5.4809,-5.4864,-5.4997,-5.5117,-5.5167,0,0,-5.375,-5.3729,-5.387,-5.3789,-5.4073,-5.397,-5.427,-5.4392,-5.4408,-5.461,-5.4621,-5.4823,-5.4871,-5.5003,-5.5445,-5.5485,0,0,0,-5.3951,-5.4052,-5.4127,-5.4251,-5.435,-5.4439,-5.4516,-5.456,-5.4732,-5.4511,-5.4906,-5.4935,-5.5013,-5.5071,-5.5105,-5.5171,-5.4738,-5.4737,-5.4737,-5.4314,-5.4323,-5.4556,-5.4597,-5.4716,-5.4793,-5.489,-5.4963,-5.4938,-5.503,-5.5091,-5.5358,-5.5426,-5.5451,-5.552,-5.5155,-5.5155,-5.5155,-5.5156,-5.4696,-5.4841,-5.4801,-5.5013,-5.5021,-5.5198,-5.5278,-5.5253,-5.5418,-5.5314,-5.5383,-5.5268,-5.5494,-5.5555,-5.5165,-5.5163,-5.5162,-5.5161,-5.5161,-5.4936,-5.5007,-5.5058,-5.5236,-5.5372,-5.5405,-5.5565,-5.5566,-5.5568,-5.5636,-5.57,-5.5698,-5.5696,-5.5666,-5.5667,-5.5668,-5.5669,-5.5669,-5.567,-5.5165,-5.5219,-5.5355,-5.5476,-5.5554,-5.5657,-5.5734,-5.5811,-5.5896,-5.5883,-5.5884,-5.5849,-5.5514,-5.543,-5.5684,-5.5682,-5.568,-5.5678,-5.5678,-5.5552,-5.5464,-5.5674,-5.5753,-5.5894,-5.6028,-5.6026,-5.6182,-5.6245,-5.6323,-5.6273,-5.6025,-5.6004,-5.5977,-5.5908,-5.627,-5.627,-5.627,-5.627,-5.5755,-5.5744,-5.5958,-5.6083,-5.6206,-5.6225,-5.646,-5.6521,-5.6569,-5.6608,-5.6555,-5.6463,-5.6436,-5.643,-5.6394,-5.633,-5.6791,-5.6791,-5.6792,-5.5993,-5.5994,-5.6195,-5.6242,-5.6351,-5.6445,-5.6665,-5.6809,-5.6845,-5.6813,-5.6639,-5.6617,-5.6468,-5.6419,-5.6384,-5.6328,-5.6209,0,0]}]]